Tracking 28518 objects as of 1-Mar-2024
HD Live streaming from Space Station
objects crossing your sky now

STARLINK-4522

Track STARLINK-4522 now!
10-day predictions
STARLINK-4522 is classified as:


NORAD ID: 53388
Int'l Code: 2022-097A
Perigee: 546.1 km
Apogee: 547.7 km
Inclination: 53.2 °
Period: 95.4 minutes
Semi major axis: 6917 km
RCS: Unknown
Launch date: August 10, 2022
Source: United States (US)
Launch site: AIR FORCE EASTERN TEST RANGE (AFETR)
Your satellite tracking list
Your tracking list is empty




NASA's NSSDC Master Catalog

Two Line Element Set (TLE):
1 53388U 22097A   24060.81543019  .00000629  00000-0  57618-4 0  9998
2 53388  53.2165 201.0501 0001144  87.1402 272.9721 15.08840445 87309
Source of the keplerian elements: AFSPC